Year,Month,Day,Hour,Minute,Value (Times are PST for windgust in km/hr)
2018,12,20,00,00,17.70
2018,12,20,00,01,11.30
2018,12,20,00,02,17.70
2018,12,20,00,03,11.30
2018,12,20,00,04,9.60
2018,12,20,00,05,11.30
2018,12,20,00,06,16.10
2018,12,20,00,07,17.70
2018,12,20,00,08,11.30
2018,12,20,00,09,8.10
2018,12,20,00,10,9.60
2018,12,20,00,11,14.50
2018,12,20,00,12,16.10
2018,12,20,00,13,16.10
2018,12,20,00,14,11.30
2018,12,20,00,15,16.10
2018,12,20,00,16,17.70
2018,12,20,00,17,9.60
2018,12,20,00,18,11.30
2018,12,20,00,19,9.60
2018,12,20,00,20,17.70
2018,12,20,00,21,6.40
2018,12,20,00,22,11.30
2018,12,20,00,23,9.60
2018,12,20,00,24,8.10
2018,12,20,00,25,8.10
2018,12,20,00,26,8.10
2018,12,20,00,27,8.10
2018,12,20,00,28,17.70
2018,12,20,00,29,8.10
2018,12,20,00,30,4.80
2018,12,20,00,31,9.60
2018,12,20,00,32,9.60
2018,12,20,00,33,20.90
2018,12,20,00,34,8.10
2018,12,20,00,35,6.40
2018,12,20,00,36,14.50
2018,12,20,00,37,6.40
2018,12,20,00,38,8.10
2018,12,20,00,39,8.10
2018,12,20,00,40,6.40
2018,12,20,00,41,6.40
2018,12,20,00,42,6.40
2018,12,20,00,43,11.30
2018,12,20,00,44,9.60
2018,12,20,00,45,11.30
2018,12,20,00,46,9.60
2018,12,20,00,47,6.40
2018,12,20,00,48,9.60
2018,12,20,00,49,12.90
2018,12,20,00,50,12.90
2018,12,20,00,51,16.10
2018,12,20,00,52,17.70
2018,12,20,00,53,14.50
2018,12,20,00,54,9.60
2018,12,20,00,55,11.30
2018,12,20,00,56,9.60
2018,12,20,00,57,14.50
2018,12,20,00,58,11.30
2018,12,20,00,59,16.10
2018,12,20,01,00,11.30
2018,12,20,01,01,9.60
2018,12,20,01,02,16.10
2018,12,20,01,03,20.90
2018,12,20,01,04,17.70
2018,12,20,01,05,19.30
2018,12,20,01,06,24.20
2018,12,20,01,07,19.30
2018,12,20,01,08,17.70
2018,12,20,01,09,17.70
2018,12,20,01,10,14.50
2018,12,20,01,11,16.10
2018,12,20,01,12,19.30
2018,12,20,01,13,12.90
2018,12,20,01,14,16.10
2018,12,20,01,15,17.70
2018,12,20,01,16,16.10
2018,12,20,01,17,16.10
2018,12,20,01,18,16.10
2018,12,20,01,19,9.60
2018,12,20,01,20,9.60
2018,12,20,01,21,9.60
2018,12,20,01,22,19.30
2018,12,20,01,23,16.10
2018,12,20,01,24,14.50
2018,12,20,01,25,11.30
2018,12,20,01,26,16.10
2018,12,20,01,27,16.10
2018,12,20,01,28,14.50
2018,12,20,01,29,17.70
2018,12,20,01,30,16.10
2018,12,20,01,31,9.60
2018,12,20,01,32,17.70
2018,12,20,01,33,20.90
2018,12,20,01,34,16.10
2018,12,20,01,35,11.30
2018,12,20,01,36,11.30
2018,12,20,01,37,8.10
2018,12,20,01,38,22.50
2018,12,20,01,39,11.30
2018,12,20,01,40,9.60
2018,12,20,01,41,6.40
2018,12,20,01,42,16.10
2018,12,20,01,43,9.60
2018,12,20,01,44,6.40
2018,12,20,01,45,19.30
2018,12,20,01,46,11.30
2018,12,20,01,47,16.10
2018,12,20,01,48,9.60
2018,12,20,01,49,16.10
2018,12,20,01,50,19.30
2018,12,20,01,51,20.90
2018,12,20,01,52,20.90
2018,12,20,01,53,9.60
2018,12,20,01,54,20.90
2018,12,20,01,55,14.50
2018,12,20,01,56,22.50
2018,12,20,01,57,19.30
2018,12,20,01,58,11.30
2018,12,20,01,59,16.10
2018,12,20,02,00,22.50
2018,12,20,02,01,11.30
2018,12,20,02,02,11.30
2018,12,20,02,03,9.60
2018,12,20,02,04,6.40
2018,12,20,02,05,4.80
2018,12,20,02,06,20.90
2018,12,20,02,07,24.20
2018,12,20,02,08,16.10
2018,12,20,02,09,11.30
2018,12,20,02,10,24.20
2018,12,20,02,11,19.30
2018,12,20,02,12,20.90
2018,12,20,02,13,17.70
2018,12,20,02,14,24.20
2018,12,20,02,15,20.90
2018,12,20,02,16,11.30
2018,12,20,02,17,9.60
2018,12,20,02,18,17.70
2018,12,20,02,19,17.70
2018,12,20,02,20,17.70
2018,12,20,02,21,16.10
2018,12,20,02,22,19.30
2018,12,20,02,23,14.50
2018,12,20,02,24,11.30
2018,12,20,02,25,9.60
2018,12,20,02,26,16.10
2018,12,20,02,27,19.30
2018,12,20,02,28,9.60
2018,12,20,02,29,6.40
2018,12,20,02,30,11.30
2018,12,20,02,31,17.70
2018,12,20,02,32,22.50
2018,12,20,02,33,19.30
2018,12,20,02,34,14.50
2018,12,20,02,35,17.70
2018,12,20,02,36,17.70
2018,12,20,02,37,16.10
2018,12,20,02,38,16.10
2018,12,20,02,39,11.30
2018,12,20,02,40,9.60
2018,12,20,02,41,19.30
2018,12,20,02,42,16.10
2018,12,20,02,43,14.50
2018,12,20,02,44,20.90
2018,12,20,02,45,24.20
2018,12,20,02,46,20.90
2018,12,20,02,47,17.70
2018,12,20,02,48,16.10
2018,12,20,02,49,17.70
2018,12,20,02,50,20.90
2018,12,20,02,51,22.50
2018,12,20,02,52,22.50
2018,12,20,02,53,24.20
2018,12,20,02,54,19.30
2018,12,20,02,55,9.60
2018,12,20,02,56,22.50
2018,12,20,02,57,25.70
2018,12,20,02,58,14.50
2018,12,20,02,59,19.30
2018,12,20,03,00,14.50
2018,12,20,03,01,19.30
2018,12,20,03,02,20.90
2018,12,20,03,03,27.40
2018,12,20,03,04,20.90
2018,12,20,03,05,14.50
2018,12,20,03,06,14.50
2018,12,20,03,07,24.20
2018,12,20,03,08,24.20
2018,12,20,03,09,27.40
2018,12,20,03,10,24.20
2018,12,20,03,11,25.70
2018,12,20,03,12,20.90
2018,12,20,03,13,16.10
2018,12,20,03,14,14.50
2018,12,20,03,15,16.10
2018,12,20,03,16,17.70
2018,12,20,03,17,12.90
2018,12,20,03,18,17.70
2018,12,20,03,19,19.30
2018,12,20,03,20,12.90
2018,12,20,03,21,22.50
2018,12,20,03,22,9.60
2018,12,20,03,23,16.10
2018,12,20,03,24,20.90
2018,12,20,03,25,16.10
2018,12,20,03,26,4.80
2018,12,20,03,27,9.60
2018,12,20,03,28,11.30
2018,12,20,03,29,20.90
2018,12,20,03,30,17.70
2018,12,20,03,31,20.90
2018,12,20,03,32,20.90
2018,12,20,03,33,19.30
2018,12,20,03,34,11.30
2018,12,20,03,35,14.50
2018,12,20,03,36,20.90
2018,12,20,03,37,20.90
2018,12,20,03,38,17.70
2018,12,20,03,39,19.30
2018,12,20,03,40,19.30
2018,12,20,03,41,20.90
2018,12,20,03,42,14.50
2018,12,20,03,43,16.10
2018,12,20,03,44,19.30
2018,12,20,03,45,16.10
2018,12,20,03,46,16.10
2018,12,20,03,47,20.90
2018,12,20,03,48,20.90
2018,12,20,03,49,9.60
2018,12,20,03,50,29.00
2018,12,20,03,51,29.00
2018,12,20,03,52,19.30
2018,12,20,03,53,14.50
2018,12,20,03,54,22.50
2018,12,20,03,55,19.30
2018,12,20,03,56,16.10
2018,12,20,03,57,12.90
2018,12,20,03,58,20.90
2018,12,20,03,59,20.90
2018,12,20,04,00,24.20
2018,12,20,04,01,24.20
2018,12,20,04,02,22.50
2018,12,20,04,03,22.50
2018,12,20,04,04,17.70
2018,12,20,04,05,22.50
2018,12,20,04,06,20.90
2018,12,20,04,07,19.30
2018,12,20,04,08,19.30
2018,12,20,04,09,9.60
2018,12,20,04,10,14.50
2018,12,20,04,11,19.30
2018,12,20,04,12,19.30
2018,12,20,04,13,24.20
2018,12,20,04,14,20.90
2018,12,20,04,15,11.30
2018,12,20,04,16,12.90
2018,12,20,04,17,16.10
2018,12,20,04,18,12.90
2018,12,20,04,19,24.20
2018,12,20,04,20,19.30
2018,12,20,04,21,22.50
2018,12,20,04,22,24.20
2018,12,20,04,23,20.90
2018,12,20,04,24,25.70
2018,12,20,04,25,22.50
2018,12,20,04,26,24.20
2018,12,20,04,27,22.50
2018,12,20,04,28,14.50
2018,12,20,04,29,22.50
2018,12,20,04,30,22.50
2018,12,20,04,31,20.90
2018,12,20,04,32,16.10
2018,12,20,04,33,19.30
2018,12,20,04,34,19.30
2018,12,20,04,35,20.90
2018,12,20,04,36,22.50
2018,12,20,04,37,20.90
2018,12,20,04,38,25.70
2018,12,20,04,39,16.10
2018,12,20,04,40,14.50
2018,12,20,04,41,19.30
2018,12,20,04,42,14.50
2018,12,20,04,43,29.00
2018,12,20,04,44,22.50
2018,12,20,04,45,22.50
2018,12,20,04,46,22.50
2018,12,20,04,47,25.70
2018,12,20,04,48,29.00
2018,12,20,04,49,20.90
2018,12,20,04,50,19.30
2018,12,20,04,51,19.30
2018,12,20,04,52,19.30
2018,12,20,04,53,19.30
2018,12,20,04,54,20.90
2018,12,20,04,55,17.70
2018,12,20,04,56,19.30
2018,12,20,04,57,19.30
2018,12,20,04,58,24.20
2018,12,20,04,59,14.50
2018,12,20,05,00,19.30
2018,12,20,05,01,29.00
2018,12,20,05,02,14.50
2018,12,20,05,03,30.60
2018,12,20,05,04,27.40
2018,12,20,05,05,19.30
2018,12,20,05,06,17.70
2018,12,20,05,07,22.50
2018,12,20,05,08,24.20
2018,12,20,05,09,11.30
2018,12,20,05,10,14.50
2018,12,20,05,11,11.30
2018,12,20,05,12,16.10
2018,12,20,05,13,9.60
2018,12,20,05,14,27.40
2018,12,20,05,15,20.90
2018,12,20,05,16,16.10
2018,12,20,05,17,16.10
2018,12,20,05,18,14.50
2018,12,20,05,19,24.20
2018,12,20,05,20,22.50
2018,12,20,05,21,17.70
2018,12,20,05,22,20.90
2018,12,20,05,23,16.10
2018,12,20,05,24,16.10
2018,12,20,05,25,16.10
2018,12,20,05,26,19.30
2018,12,20,05,27,17.70
2018,12,20,05,28,12.90
2018,12,20,05,29,19.30
2018,12,20,05,30,17.70
2018,12,20,05,31,14.50
2018,12,20,05,32,24.20
2018,12,20,05,33,24.20
2018,12,20,05,34,20.90
2018,12,20,05,35,20.90
2018,12,20,05,36,22.50
2018,12,20,05,37,22.50
2018,12,20,05,38,25.70
2018,12,20,05,39,19.30
2018,12,20,05,40,20.90
2018,12,20,05,41,17.70
2018,12,20,05,42,20.90
2018,12,20,05,43,22.50
2018,12,20,05,44,19.30
2018,12,20,05,45,14.50
2018,12,20,05,46,19.30
2018,12,20,05,47,12.90
2018,12,20,05,48,17.70
2018,12,20,05,49,11.30
2018,12,20,05,50,9.60
2018,12,20,05,51,14.50
2018,12,20,05,52,19.30
2018,12,20,05,53,17.70
2018,12,20,05,54,11.30
2018,12,20,05,55,16.10
2018,12,20,05,56,20.90
2018,12,20,05,57,16.10
2018,12,20,05,58,20.90
2018,12,20,05,59,19.30
2018,12,20,06,00,19.30
2018,12,20,06,01,14.50
2018,12,20,06,02,19.30
2018,12,20,06,03,20.90
2018,12,20,06,04,16.10
2018,12,20,06,05,17.70
2018,12,20,06,06,9.60
2018,12,20,06,07,16.10
2018,12,20,06,08,16.10
2018,12,20,06,09,16.10
2018,12,20,06,10,14.50
2018,12,20,06,11,14.50
2018,12,20,06,12,19.30
2018,12,20,06,13,12.90
2018,12,20,06,14,11.30
2018,12,20,06,15,8.10
2018,12,20,06,16,11.30
2018,12,20,06,17,11.30
2018,12,20,06,18,8.10
2018,12,20,06,19,8.10
2018,12,20,06,20,11.30
2018,12,20,06,21,8.10
2018,12,20,06,22,6.40
2018,12,20,06,23,19.30
2018,12,20,06,24,6.40
2018,12,20,06,25,14.50
2018,12,20,06,26,8.10
2018,12,20,06,27,6.40
2018,12,20,06,28,11.30
2018,12,20,06,29,11.30
2018,12,20,06,30,9.60
2018,12,20,06,31,16.10
2018,12,20,06,32,8.10
2018,12,20,06,33,8.10
2018,12,20,06,34,14.50
2018,12,20,06,35,12.90
2018,12,20,06,36,6.40
2018,12,20,06,37,11.30
2018,12,20,06,38,16.10
2018,12,20,06,39,16.10
2018,12,20,06,40,16.10
2018,12,20,06,41,17.70
2018,12,20,06,42,19.30
2018,12,20,06,43,16.10
2018,12,20,06,44,9.60
2018,12,20,06,45,14.50
2018,12,20,06,46,19.30
2018,12,20,06,47,19.30
2018,12,20,06,48,14.50
2018,12,20,06,49,14.50
2018,12,20,06,50,11.30
2018,12,20,06,51,16.10
2018,12,20,06,52,16.10
2018,12,20,06,53,9.60
2018,12,20,06,54,9.60
2018,12,20,06,55,19.30
2018,12,20,06,56,12.90
2018,12,20,06,57,16.10
2018,12,20,06,58,19.30
2018,12,20,06,59,14.50
2018,12,20,07,00,20.90
2018,12,20,07,01,17.70
2018,12,20,07,02,17.70
2018,12,20,07,03,14.50
2018,12,20,07,04,22.50
2018,12,20,07,05,17.70
2018,12,20,07,06,16.10
2018,12,20,07,07,20.90
2018,12,20,07,08,22.50
2018,12,20,07,09,11.30
2018,12,20,07,10,14.50
2018,12,20,07,11,19.30
2018,12,20,07,12,16.10
2018,12,20,07,13,17.70
2018,12,20,07,14,9.60
2018,12,20,07,15,16.10
2018,12,20,07,16,16.10
2018,12,20,07,17,16.10
2018,12,20,07,18,16.10
2018,12,20,07,19,19.30
2018,12,20,07,20,14.50
2018,12,20,07,21,9.60
2018,12,20,07,22,9.60
2018,12,20,07,23,9.60
2018,12,20,07,24,8.10
2018,12,20,07,25,17.70
2018,12,20,07,26,19.30
2018,12,20,07,27,6.40
2018,12,20,07,28,9.60
2018,12,20,07,29,9.60
2018,12,20,07,30,11.30
2018,12,20,07,31,11.30
2018,12,20,07,32,11.30
2018,12,20,07,33,9.60
2018,12,20,07,34,22.50
2018,12,20,07,35,14.50
2018,12,20,07,36,17.70
2018,12,20,07,37,19.30
2018,12,20,07,38,19.30
2018,12,20,07,39,12.90
2018,12,20,07,40,11.30
2018,12,20,07,41,12.90
2018,12,20,07,42,19.30
2018,12,20,07,43,11.30
2018,12,20,07,44,16.10
2018,12,20,07,45,9.60
2018,12,20,07,46,9.60
2018,12,20,07,47,8.10
2018,12,20,07,48,6.40
2018,12,20,07,49,4.80
2018,12,20,07,50,4.80
2018,12,20,07,51,6.40
2018,12,20,07,52,19.30
2018,12,20,07,53,22.50
2018,12,20,07,54,19.30
2018,12,20,07,55,8.10
2018,12,20,07,56,6.40
2018,12,20,07,57,6.40
2018,12,20,07,58,8.10
2018,12,20,07,59,8.10
2018,12,20,08,00,11.30
2018,12,20,08,01,9.60
2018,12,20,08,02,14.50
2018,12,20,08,03,17.70
2018,12,20,08,04,11.30
2018,12,20,08,05,12.90
2018,12,20,08,06,19.30
2018,12,20,08,07,12.90
2018,12,20,08,08,9.60
2018,12,20,08,09,20.90
2018,12,20,08,10,11.30
2018,12,20,08,11,24.20
2018,12,20,08,12,22.50
2018,12,20,08,13,25.70
2018,12,20,08,14,19.30
2018,12,20,08,15,16.10
2018,12,20,08,16,16.10
2018,12,20,08,17,11.30
2018,12,20,08,18,11.30
2018,12,20,08,19,19.30
2018,12,20,08,20,25.70
2018,12,20,08,21,27.40
2018,12,20,08,22,20.90
2018,12,20,08,23,17.70
2018,12,20,08,24,19.30
2018,12,20,08,25,24.20
2018,12,20,08,26,16.10
2018,12,20,08,27,20.90
2018,12,20,08,28,20.90
2018,12,20,08,29,19.30
2018,12,20,08,30,24.20
2018,12,20,08,31,27.40
2018,12,20,08,32,22.50
2018,12,20,08,33,20.90
2018,12,20,08,34,22.50
2018,12,20,08,35,17.70
2018,12,20,08,36,14.50
2018,12,20,08,37,12.90
2018,12,20,08,38,14.50
2018,12,20,08,39,20.90
2018,12,20,08,40,20.90
2018,12,20,08,41,22.50
2018,12,20,08,42,19.30
2018,12,20,08,43,17.70
2018,12,20,08,44,16.10
2018,12,20,08,45,16.10
2018,12,20,08,46,22.50
2018,12,20,08,47,27.40
2018,12,20,08,48,9.60
2018,12,20,08,49,11.30
2018,12,20,08,50,11.30
2018,12,20,08,51,16.10
2018,12,20,08,52,20.90
2018,12,20,08,53,25.70
2018,12,20,08,54,24.20
2018,12,20,08,55,16.10
2018,12,20,08,56,17.70
2018,12,20,08,57,20.90
2018,12,20,08,58,29.00
2018,12,20,08,59,24.20
2018,12,20,09,00,19.30
2018,12,20,09,01,22.50
2018,12,20,09,02,16.10
2018,12,20,09,03,25.70
2018,12,20,09,04,22.50
2018,12,20,09,05,22.50
2018,12,20,09,06,22.50
2018,12,20,09,07,19.30
2018,12,20,09,08,16.10
2018,12,20,09,09,19.30
2018,12,20,09,10,17.70
2018,12,20,09,11,12.90
2018,12,20,09,12,30.60
2018,12,20,09,13,19.30
2018,12,20,09,14,24.20
2018,12,20,09,15,16.10
2018,12,20,09,16,27.40
2018,12,20,09,17,33.80
2018,12,20,09,18,33.80
2018,12,20,09,19,25.70
2018,12,20,09,20,27.40
2018,12,20,09,21,24.20
2018,12,20,09,22,24.20
2018,12,20,09,23,16.10
2018,12,20,09,24,17.70
2018,12,20,09,25,16.10
2018,12,20,09,26,29.00
2018,12,20,09,27,22.50
2018,12,20,09,28,29.00
2018,12,20,09,29,25.70
2018,12,20,09,30,22.50
2018,12,20,09,31,11.30
2018,12,20,09,32,17.70
2018,12,20,09,33,11.30
2018,12,20,09,34,22.50
2018,12,20,09,35,25.70
2018,12,20,09,36,16.10
2018,12,20,09,37,14.50
2018,12,20,09,38,14.50
2018,12,20,09,39,17.70
2018,12,20,09,40,12.90
2018,12,20,09,41,16.10
2018,12,20,09,42,14.50
2018,12,20,09,43,20.90
2018,12,20,09,44,16.10
2018,12,20,09,45,22.50
2018,12,20,09,46,19.30
2018,12,20,09,47,17.70
2018,12,20,09,48,16.10
2018,12,20,09,49,20.90
2018,12,20,09,50,19.30
2018,12,20,09,51,24.20
2018,12,20,09,52,20.90
2018,12,20,09,53,17.70
2018,12,20,09,54,17.70
2018,12,20,09,55,14.50
2018,12,20,09,56,9.60
2018,12,20,09,57,19.30
2018,12,20,09,58,30.60
2018,12,20,09,59,25.70
2018,12,20,10,00,20.90
2018,12,20,10,01,16.10
2018,12,20,10,02,24.20
2018,12,20,10,03,29.00
2018,12,20,10,04,27.40
2018,12,20,10,05,20.90
2018,12,20,10,06,19.30
2018,12,20,10,07,24.20
2018,12,20,10,08,20.90
2018,12,20,10,09,16.10
2018,12,20,10,10,9.60
2018,12,20,10,11,17.70
2018,12,20,10,12,8.10
2018,12,20,10,13,11.30
2018,12,20,10,14,20.90
2018,12,20,10,15,19.30
2018,12,20,10,16,20.90
2018,12,20,10,17,19.30
2018,12,20,10,18,20.90
2018,12,20,10,19,19.30
2018,12,20,10,20,12.90
2018,12,20,10,21,12.90
2018,12,20,10,22,14.50
2018,12,20,10,23,11.30
2018,12,20,10,24,16.10
2018,12,20,10,25,19.30
2018,12,20,10,26,22.50
2018,12,20,10,27,17.70
2018,12,20,10,28,14.50
2018,12,20,10,29,9.60
2018,12,20,10,30,17.70
2018,12,20,10,31,14.50
2018,12,20,10,32,25.70
2018,12,20,10,33,33.80
2018,12,20,10,34,24.20
2018,12,20,10,35,19.30
2018,12,20,10,36,14.50
2018,12,20,10,37,20.90
2018,12,20,10,38,19.30
2018,12,20,10,39,20.90
2018,12,20,10,40,20.90
2018,12,20,10,41,25.70
2018,12,20,10,42,24.20
2018,12,20,10,43,30.60
2018,12,20,10,44,24.20
2018,12,20,10,45,27.40
2018,12,20,10,46,22.50
2018,12,20,10,47,20.90
2018,12,20,10,48,22.50
2018,12,20,10,49,30.60
2018,12,20,10,50,27.40
2018,12,20,10,51,27.40
2018,12,20,10,52,25.70
2018,12,20,10,53,22.50
2018,12,20,10,54,19.30
2018,12,20,10,55,11.30
2018,12,20,10,56,11.30
2018,12,20,10,57,41.80
2018,12,20,10,58,41.80
2018,12,20,10,59,40.20
2018,12,20,11,00,35.40
2018,12,20,11,01,30.60
2018,12,20,11,02,53.10
2018,12,20,11,03,33.80
2018,12,20,11,04,46.70
2018,12,20,11,05,37.00
2018,12,20,11,06,38.60
2018,12,20,11,07,38.60
2018,12,20,11,08,29.00
2018,12,20,11,09,20.90
2018,12,20,11,10,35.40
2018,12,20,11,11,35.40
2018,12,20,11,12,30.60
2018,12,20,11,13,53.10
2018,12,20,11,14,48.30
2018,12,20,11,15,29.00
2018,12,20,11,16,41.80
2018,12,20,11,17,51.50
2018,12,20,11,18,35.40
2018,12,20,11,19,49.90
2018,12,20,11,20,35.40
2018,12,20,11,21,54.70
2018,12,20,11,22,53.10
2018,12,20,11,23,51.50
2018,12,20,11,24,33.80
2018,12,20,11,25,40.20
2018,12,20,11,26,46.70
2018,12,20,11,27,48.30
2018,12,20,11,28,48.30
2018,12,20,11,29,41.80
2018,12,20,11,30,30.60
2018,12,20,11,31,29.00
2018,12,20,11,32,33.80
2018,12,20,11,33,45.10
2018,12,20,11,34,45.10
2018,12,20,11,35,32.20
2018,12,20,11,36,45.10
2018,12,20,11,37,25.70
2018,12,20,11,38,30.60
2018,12,20,11,39,40.20
2018,12,20,11,40,35.40
2018,12,20,11,41,33.80
2018,12,20,11,42,35.40
2018,12,20,11,43,33.80
2018,12,20,11,44,32.20
2018,12,20,11,45,45.10
2018,12,20,11,46,33.80
2018,12,20,11,47,32.20
2018,12,20,11,48,48.30
2018,12,20,11,49,25.70
2018,12,20,11,50,35.40
2018,12,20,11,51,38.60
2018,12,20,11,52,35.40
2018,12,20,11,53,41.80
2018,12,20,11,54,20.90
2018,12,20,11,55,27.40
2018,12,20,11,56,22.50
2018,12,20,11,57,27.40
2018,12,20,11,58,27.40
2018,12,20,11,59,37.00
2018,12,20,12,00,37.00
2018,12,20,12,01,45.10
2018,12,20,12,02,46.70
2018,12,20,12,03,43.50
2018,12,20,12,04,53.10
2018,12,20,12,05,46.70
2018,12,20,12,06,46.70
2018,12,20,12,07,32.20
2018,12,20,12,08,33.80
2018,12,20,12,09,32.20
2018,12,20,12,10,45.10
2018,12,20,12,11,30.60
2018,12,20,12,12,43.50
2018,12,20,12,13,35.40
2018,12,20,12,14,41.80
2018,12,20,12,15,53.10
2018,12,20,12,16,43.50
2018,12,20,12,17,64.40
2018,12,20,12,18,57.90
2018,12,20,12,19,48.30
2018,12,20,12,20,48.30
2018,12,20,12,21,43.50
2018,12,20,12,22,30.60
2018,12,20,12,23,43.50
2018,12,20,12,24,33.80
2018,12,20,12,25,53.10
2018,12,20,12,26,48.30
2018,12,20,12,27,49.90
2018,12,20,12,28,35.40
2018,12,20,12,29,49.90
2018,12,20,12,30,48.30
2018,12,20,12,31,35.40
2018,12,20,12,32,49.90
2018,12,20,12,33,53.10
2018,12,20,12,34,53.10
2018,12,20,12,35,66.00
2018,12,20,12,36,46.70
2018,12,20,12,37,46.70
2018,12,20,12,38,53.10
2018,12,20,12,39,67.60
2018,12,20,12,40,61.20
2018,12,20,12,41,53.10
2018,12,20,12,42,46.70
2018,12,20,12,43,48.30
2018,12,20,12,44,43.50
2018,12,20,12,45,67.60
2018,12,20,12,46,45.10
2018,12,20,12,47,48.30
2018,12,20,12,48,40.20
2018,12,20,12,49,48.30
2018,12,20,12,50,64.40
2018,12,20,12,51,53.10
2018,12,20,12,52,53.10
2018,12,20,12,53,37.00
2018,12,20,12,54,45.10
2018,12,20,12,55,56.30
2018,12,20,12,56,49.90
2018,12,20,12,57,45.10
2018,12,20,12,58,57.90
2018,12,20,12,59,54.70
2018,12,20,13,00,49.90
2018,12,20,13,01,38.60
2018,12,20,13,02,41.80
2018,12,20,13,03,33.80
2018,12,20,13,04,41.80
2018,12,20,13,05,45.10
2018,12,20,13,06,45.10
2018,12,20,13,07,40.20
2018,12,20,13,08,53.10
2018,12,20,13,09,48.30
2018,12,20,13,10,46.70
2018,12,20,13,11,38.60
2018,12,20,13,12,40.20
2018,12,20,13,13,46.70
2018,12,20,13,14,54.70
2018,12,20,13,15,49.90
2018,12,20,13,16,37.00
2018,12,20,13,17,35.40
2018,12,20,13,18,25.70
2018,12,20,13,19,33.80
2018,12,20,13,20,27.40
2018,12,20,13,21,37.00
2018,12,20,13,22,56.30
2018,12,20,13,23,49.90
2018,12,20,13,24,35.40
2018,12,20,13,25,38.60
2018,12,20,13,26,35.40
2018,12,20,13,27,40.20
2018,12,20,13,28,40.20
2018,12,20,13,29,51.50
2018,12,20,13,30,40.20
2018,12,20,13,31,51.50
2018,12,20,13,32,35.40
2018,12,20,13,33,35.40
2018,12,20,13,34,37.00
2018,12,20,13,35,40.20
2018,12,20,13,36,37.00
2018,12,20,13,37,33.80
2018,12,20,13,38,43.50
2018,12,20,13,39,45.10
2018,12,20,13,40,54.70
2018,12,20,13,41,66.00
2018,12,20,13,42,57.90
2018,12,20,13,43,40.20
2018,12,20,13,44,38.60
2018,12,20,13,45,35.40
2018,12,20,13,46,62.70
2018,12,20,13,47,64.40
2018,12,20,13,48,53.10
2018,12,20,13,49,72.40
2018,12,20,13,50,75.60
2018,12,20,13,51,59.50
2018,12,20,13,52,53.10
2018,12,20,13,53,59.50
2018,12,20,13,54,57.90
2018,12,20,13,55,51.50
2018,12,20,13,56,59.50
2018,12,20,13,57,74.00
2018,12,20,13,58,56.30
2018,12,20,13,59,74.00
2018,12,20,14,00,57.90
2018,12,20,14,01,75.60
2018,12,20,14,06,1.60
2018,12,20,14,10,1.60
2018,12,20,14,11,1.60
